This demonstration page uses our WeatherBlox Daily Observations layout. Learn more.

Left ArrowRight Arrow

39.01783, -85.05884

Hourly Observations for March 18, 2017

Temp ( °F °C ) Dew Point ( °F °C ) Humidity (%) Winds ( mph kmh ) Pressure ( in mb ) Visibility ( mi km ) Precip ( " mm )
12:52 am 00:52 Cloudy with Mist and Fog 46 7.8 46 7.8 100 100 VRB 3 6 30.06 1018 1 2 0.00 0.00
1:52 am 01:52 Cloudy with Mist and Fog 46 7.8 45 7.2 96 96 SW 6 9 30.07 1018 4 6 0.00 0.00
2:52 am 02:52 Cloudy with Mist and Fog 47 8.3 46 7.8 97 97 SSW 6 9 30.07 1018 4 6 0.00 0.00
3:52 am 03:52 Cloudy with Mist and Fog 46 7.8 46 7.8 100 100 SW 5 7 30.05 1018 3 5 0.00 0.00
4:21 am 04:21 Cloudy with Mist and Fog 46 7.8 46 7.8 100 100 Calm 30.06 1018 3 4 0.00 0.00
4:39 am 04:39 Cloudy with Mist and Fog 46 7.8 45 7.2 96 96 SSW 3 6 30.06 1018 3 4 0.00 0.00
4:50 am 04:50 Cloudy with Mist and Fog 46 8 45 7 93 93 SSW 3 6 30.06 1018 3 5 0.00 0.00
4:52 am 04:52 Cloudy with Mist and Fog 45 7.2 45 7.2 100 100 SSW 5 7 30.04 1017 3 5 0.00 0.00
5:16 am 05:16 Cloudy with Mist and Fog 46 8 46 8 100 100 SSW 7 11 30.06 1018 2 3 0.00 0.00
5:52 am 05:52 Cloudy with Mist and Fog 47 8.3 47 8.3 100 100 WSW 6 9 30.03 1017 2 2 0.00 0.00
6:15 am 06:15 Cloudy with Mist and Fog 47 8.3 47 8.3 100 100 W 8 13 30.06 1018 2 3 0.00 0.00
6:52 am 06:52 Cloudy with Mist and Fog 47 8.3 46 7.8 97 97 SW 8 13 30.01 1016 3 4 0.00 0.00
7:52 am 07:52 Cloudy with Mist and Fog 46 7.8 44 6.7 93 93 W 13 20 30.03 1017 3 5 0.00 0.00
8:52 am 08:52 Cloudy 43 6.1 38 3.3 82 82 WNW 16 26 30.06 1018 9 14 0.00 0.00
9:08 am 09:08 Cloudy 43 6 37 3 81 81 WNW 16 26 30.09 1019 10 16 0.00 0.00
9:52 am 09:52 Cloudy 41 5 34 1.1 76 76 WNW 18 30 30.08 1019 10 16 0.00 0.00
10:52 am 10:52 Cloudy 39 3.9 31 -0.6 73 73 WNW 21 33 30.10 1019 10 16 0.00 0.00
11:52 am 11:52 Cloudy 39 3.9 30 -1.1 70 70 WNW 16 26 30.12 1020 10 16 0.00 0.00
12:52 pm 12:52 Cloudy 41 5 33 0.6 73 73 W 21 33 30.12 1020 10 16 0.00 0.00
1:52 pm 13:52 Cloudy 40 4.4 32 0 73 73 WNW 16 26 30.14 1021 10 16 0.00 0.00
2:52 pm 14:52 Cloudy 41 5 32 0 70 70 WNW 20 31 30.14 1021 10 16 0.00 0.00
3:52 pm 15:52 Cloudy with Drizzle 39 3.9 35 1.7 86 86 WNW 14 22 30.16 1021 8 13 0.00 0.03
4:52 pm 16:52 Cloudy 40 4.4 34 1.1 79 79 WNW 15 24 30.17 1022 10 16 0.00 0.03
5:52 pm 17:52 Cloudy with Drizzle 39 3.9 33 0.6 79 79 WNW 16 26 30.19 1022 10 16 0.00 0.03
6:52 pm 18:52 Cloudy 39 3.9 33 0.6 79 79 W 14 22 30.21 1023 10 16 0.00 0.03
7:52 pm 19:52 Cloudy 40 4.4 32 0 73 73 WNW 13 20 30.24 1024 10 16 0.00 0.00
8:52 pm 20:52 Cloudy 39 3.9 32 0 76 76 W 9 15 30.25 1024 10 16 0.00 0.00
9:48 pm 21:48 Cloudy 39 4 34 1 81 81 W 7 11 30.27 1025 10 16 0.00 0.00
9:52 pm 21:52 Cloudy 38 3.3 33 0.6 83 83 W 7 11 30.26 1025 10 16 0.00 0.00
10:52 pm 22:52 Cloudy 39 3.9 32 0 76 76 WNW 8 13 30.26 1025 10 16 0.00 0.00
11:44 pm 23:44 Cloudy 39 4 32 0 75 75 NW 9 15 30.30 1026 10 16 0.00 0.00
11:52 pm 23:52 Cloudy 39 3.9 32 0 76 76 NW 8 13 30.27 1025 10 16 0.00 0.00

Powered by AerisWeather